RYR6WD EGSS-LFBZ

Flight info

Callsign RYR6WD
Flight time 1h 25m
Altitude 33000
Route NUGBO1S NUGBO M183 SILVA Q41 COWLY UT71 VAPID UN859 SOPIL DCT BALAN DCT LMG DCT UVELI DCT OSMOB DCT VAVIX DCT MAGEC MAGEC3S
Aircraft B738/M-SDE2E3FGHIRWXY/LB1

Departure

Time 2026-05-06 20:26
Airport London Stansted Airport (EGSS)

Arrival

Time 2026-05-06 21:52
Airport Biarritz Pays Basque airport (LFBZ)
Time Latitude Longitude Altitude Speed Heading
2026-05-06 19:58 51.89241 0.25585 361 ft 0 kts 223°
2026-05-06 20:12 51.89256 0.25609 360 ft 4 kts 230°
2026-05-06 20:12 51.89270 0.25643 359 ft 4 kts 249°
2026-05-06 20:12 51.89274 0.25682 360 ft 4 kts 296°
2026-05-06 20:13 51.89271 0.25692 359 ft 1 kts 311°
2026-05-06 20:17 51.89271 0.25691 359 ft 1 kts 311°
2026-05-06 20:17 51.89293 0.25650 358 ft 7 kts 311°
2026-05-06 20:17 51.89326 0.25592 359 ft 8 kts 313°
2026-05-06 20:18 51.89334 0.25520 354 ft 9 kts 236°
2026-05-06 20:18 51.89263 0.25408 351 ft 19 kts 222°
2026-05-06 20:18 51.89150 0.25239 351 ft 20 kts 223°
2026-05-06 20:18 51.89025 0.25053 351 ft 29 kts 222°
2026-05-06 20:19 51.88888 0.24846 356 ft 34 kts 223°
2026-05-06 20:19 51.88773 0.24673 351 ft 18 kts 222°
2026-05-06 20:19 51.88667 0.24512 347 ft 25 kts 223°
2026-05-06 20:19 51.88528 0.24303 350 ft 30 kts 223°
2026-05-06 20:20 51.88397 0.24108 340 ft 25 kts 222°
2026-05-06 20:20 51.88261 0.23903 337 ft 31 kts 222°
2026-05-06 20:20 51.88114 0.23684 336 ft 27 kts 223°
2026-05-06 20:20 51.87981 0.23484 336 ft 26 kts 223°
2026-05-06 20:21 51.87858 0.23299 334 ft 23 kts 223°
2026-05-06 20:21 51.87742 0.23122 334 ft 16 kts 228°
2026-05-06 20:21 51.87686 0.22999 336 ft 6 kts 238°
2026-05-06 20:21 51.87685 0.22996 336 ft 0 kts 238°
2026-05-06 20:22 51.87680 0.22984 334 ft 2 kts 238°
2026-05-06 20:22 51.87678 0.22979 334 ft 0 kts 238°
2026-05-06 20:22 51.87685 0.22997 336 ft 5 kts 238°
2026-05-06 20:22 51.87711 0.23064 335 ft 10 kts 238°
2026-05-06 20:23 51.87724 0.23084 334 ft 3 kts 276°
2026-05-06 20:23 51.87752 0.23000 332 ft 13 kts 312°
2026-05-06 20:23 51.87765 0.22863 331 ft 16 kts 225°
2026-05-06 20:23 51.87686 0.22745 335 ft 15 kts 223°
2026-05-06 20:24 51.87620 0.22644 333 ft 15 kts 223°
2026-05-06 20:24 51.87549 0.22538 329 ft 17 kts 223°
2026-05-06 20:24 51.87464 0.22410 329 ft 17 kts 223°
2026-05-06 20:24 51.87402 0.22253 325 ft 16 kts 272°
2026-05-06 20:25 51.87442 0.22134 323 ft 13 kts 310°
2026-05-06 20:25 51.87506 0.22029 322 ft 11 kts 321°
2026-05-06 20:25 51.87534 0.22033 322 ft 4 kts 35°
2026-05-06 20:25 51.87560 0.22071 322 ft 5 kts 43°
2026-05-06 20:26 51.87620 0.22162 323 ft 32 kts 41°
2026-05-06 20:26 51.87971 0.22684 333 ft 104 kts 43°
2026-05-06 20:26 51.88667 0.23699 362 ft 162 kts 39°
2026-05-06 20:26 51.89542 0.24932 1050 ft 166 kts 40°
2026-05-06 20:27 51.90401 0.26198 1983 ft 163 kts 41°
2026-05-06 20:27 51.91221 0.27383 2867 ft 159 kts 41°
2026-05-06 20:27 51.92097 0.28668 3309 ft 181 kts 42°
2026-05-06 20:27 51.93110 0.29967 3876 ft 194 kts 26°
2026-05-06 20:28 51.94507 0.30326 4059 ft 220 kts 349°
2026-05-06 20:28 51.95923 0.29221 4319 ft 241 kts 320°
2026-05-06 20:28 51.96932 0.26894 4655 ft 261 kts 289°
2026-05-06 20:28 51.97335 0.23994 4998 ft 266 kts 279°
2026-05-06 20:29 51.97580 0.21016 5002 ft 266 kts 278°
2026-05-06 20:29 51.97820 0.18046 4994 ft 266 kts 277°
2026-05-06 20:29 51.98070 0.15086 5110 ft 264 kts 279°
2026-05-06 20:29 51.98355 0.12147 5439 ft 266 kts 279°
2026-05-06 20:30 51.98666 0.09159 5835 ft 270 kts 279°
2026-05-06 20:30 51.98662 0.03049 6978 ft 277 kts 255°
2026-05-06 20:30 51.98222 -0.00019 7334 ft 275 kts 257°
2026-05-06 20:31 51.97816 -0.03050 7915 ft 276 kts 258°
2026-05-06 20:31 51.97418 -0.06105 8490 ft 278 kts 259°
2026-05-06 20:31 51.97019 -0.09183 9069 ft 280 kts 259°
2026-05-06 20:31 51.96616 -0.12280 9663 ft 282 kts 260°
2026-05-06 20:32 51.96132 -0.15361 10202 ft 285 kts 247°
2026-05-06 20:32 51.94886 -0.17902 10582 ft 301 kts 222°
2026-05-06 20:32 51.93173 -0.20081 10783 ft 325 kts 219°
2026-05-06 20:32 51.91305 -0.22349 10955 ft 347 kts 218°
2026-05-06 20:33 51.89315 -0.24762 11194 ft 366 kts 218°
2026-05-06 20:33 51.87259 -0.27282 11666 ft 375 kts 219°
2026-05-06 20:33 51.85172 -0.29869 12349 ft 379 kts 219°
2026-05-06 20:33 51.83083 -0.32482 13093 ft 381 kts 219°
2026-05-06 20:34 51.80987 -0.35119 13792 ft 384 kts 220°
2026-05-06 20:34 51.78866 -0.37798 14384 ft 388 kts 219°
2026-05-06 20:34 51.76732 -0.40494 15026 ft 391 kts 219°
2026-05-06 20:34 51.74589 -0.43203 15662 ft 393 kts 219°
2026-05-06 20:35 51.72426 -0.45934 16279 ft 396 kts 219°
2026-05-06 20:35 51.70247 -0.48683 16883 ft 399 kts 219°
2026-05-06 20:35 51.68051 -0.51449 17442 ft 402 kts 219°
2026-05-06 20:35 51.65834 -0.54239 18051 ft 405 kts 219°
2026-05-06 20:36 51.63602 -0.57044 18588 ft 408 kts 219°
2026-05-06 20:36 51.61358 -0.59860 19098 ft 411 kts 219°
2026-05-06 20:36 51.59094 -0.62697 19609 ft 413 kts 219°
2026-05-06 20:36 51.56820 -0.65544 20104 ft 416 kts 219°
2026-05-06 20:37 51.54529 -0.68407 20589 ft 418 kts 219°
2026-05-06 20:37 51.52223 -0.71286 21073 ft 421 kts 219°
2026-05-06 20:37 51.49901 -0.74180 21524 ft 424 kts 219°
2026-05-06 20:37 51.47562 -0.77093 21956 ft 427 kts 219°
2026-05-06 20:38 51.45207 -0.80021 22398 ft 430 kts 219°
2026-05-06 20:38 51.42836 -0.82966 22841 ft 432 kts 219°
2026-05-06 20:38 51.40452 -0.85922 23282 ft 435 kts 219°
2026-05-06 20:38 51.38051 -0.88896 23682 ft 438 kts 219°
2026-05-06 20:39 51.35632 -0.91889 24031 ft 440 kts 219°
2026-05-06 20:39 51.33212 -0.94879 24402 ft 441 kts 219°
2026-05-06 20:39 51.30775 -0.97884 24755 ft 443 kts 219°
2026-05-06 20:39 51.28175 -1.00556 25028 ft 449 kts 204°
2026-05-06 20:40 51.25137 -1.01770 25355 ft 455 kts 186°
2026-05-06 20:40 51.21967 -1.01595 25733 ft 458 kts 172°
2026-05-06 20:40 51.18921 -1.00058 26043 ft 463 kts 158°
2026-05-06 20:40 51.13369 -0.95937 26599 ft 468 kts 156°
2026-05-06 20:41 51.07436 -0.91493 27167 ft 472 kts 156°
2026-05-06 20:41 51.01456 -0.87141 27809 ft 474 kts 157°
2026-05-06 20:41 50.95475 -0.82845 28729 ft 469 kts 157°
2026-05-06 20:41 50.89521 -0.78579 29499 ft 469 kts 157°
2026-05-06 20:42 50.83666 -0.74101 30257 ft 468 kts 150°
2026-05-06 20:42 50.78203 -0.68504 30904 ft 467 kts 148°
2026-05-06 20:42 50.72792 -0.62832 31506 ft 467 kts 148°
2026-05-06 20:42 50.67357 -0.57249 32157 ft 465 kts 149°
2026-05-06 20:43 50.61926 -0.51750 32728 ft 464 kts 149°
2026-05-06 20:43 50.56477 -0.46262 33063 ft 469 kts 149°
2026-05-06 20:43 50.50939 -0.40699 33003 ft 475 kts 149°
2026-05-06 20:44 50.39869 -0.29609 32983 ft 467 kts 149°
2026-05-06 20:44 50.29065 -0.18849 32995 ft 457 kts 149°
2026-05-06 20:45 50.18310 -0.08195 33009 ft 461 kts 148°
2026-05-06 20:45 50.06974 0.01421 32998 ft 468 kts 166°
2026-05-06 20:46 49.94287 0.06176 32978 ft 468 kts 167°
2026-05-06 20:46 49.81770 0.11060 32999 ft 459 kts 167°
2026-05-06 20:47 49.69440 0.15857 33017 ft 457 kts 167°
2026-05-06 20:47 49.57017 0.20856 33035 ft 467 kts 166°
2026-05-06 20:47 49.50724 0.23412 33393 ft 468 kts 166°
2026-05-06 20:48 49.44430 0.25950 34009 ft 466 kts 166°
2026-05-06 20:48 49.38184 0.28460 34559 ft 463 kts 166°
2026-05-06 20:48 49.31942 0.30962 34971 ft 463 kts 166°
2026-05-06 20:48 49.25716 0.33524 35376 ft 463 kts 165°
2026-05-06 20:49 49.19501 0.36158 35775 ft 463 kts 165°
2026-05-06 20:49 49.13284 0.38781 36032 ft 465 kts 165°
2026-05-06 20:49 49.07007 0.41409 36008 ft 470 kts 165°
2026-05-06 20:50 48.94364 0.46675 35991 ft 469 kts 165°
2026-05-06 20:50 48.81889 0.51847 35992 ft 460 kts 165°
2026-05-06 20:51 48.69586 0.56742 36016 ft 456 kts 166°
2026-05-06 20:51 48.57188 0.61559 36018 ft 465 kts 166°
2026-05-06 20:52 48.44641 0.66545 36001 ft 472 kts 165°
2026-05-06 20:52 48.38330 0.69128 35980 ft 465 kts 165°
2026-05-06 20:53 48.32124 0.71646 36000 ft 461 kts 166°
2026-05-06 20:53 48.25926 0.74147 35991 ft 461 kts 166°
2026-05-06 20:54 48.19719 0.76614 35991 ft 462 kts 166°
2026-05-06 20:54 48.13500 0.79053 35995 ft 462 kts 166°
2026-05-06 20:55 48.07270 0.81494 35998 ft 463 kts 166°
2026-05-06 20:55 48.01032 0.83938 35991 ft 464 kts 166°
2026-05-06 20:56 47.94787 0.86379 35978 ft 465 kts 166°
2026-05-06 20:56 47.88516 0.88825 35982 ft 466 kts 166°
2026-05-06 20:57 47.82241 0.91265 35980 ft 467 kts 166°
2026-05-06 20:57 47.75949 0.93700 35975 ft 467 kts 166°
2026-05-06 20:58 47.69655 0.96129 35981 ft 468 kts 166°
2026-05-06 20:58 47.63354 0.98557 35979 ft 468 kts 166°
2026-05-06 20:59 47.58566 1.00399 35969 ft 468 kts 166°
2026-05-06 21:00 47.56781 1.01084 36042 ft 464 kts 166°
2026-05-06 21:01 47.50527 1.03483 35992 ft 466 kts 166°
2026-05-06 21:01 47.44243 1.05850 35984 ft 466 kts 169°
2026-05-06 21:02 47.37810 1.06473 35983 ft 463 kts 182°
2026-05-06 21:02 47.31368 1.06206 35978 ft 463 kts 183°
2026-05-06 21:03 47.26008 1.06026 35975 ft 464 kts 182°
2026-05-06 21:03 47.19552 1.05869 35975 ft 464 kts 182°
2026-05-06 21:04 47.13091 1.05731 35971 ft 464 kts 182°
2026-05-06 21:04 47.06635 1.05590 35979 ft 464 kts 182°
2026-05-06 21:05 47.00173 1.05428 35975 ft 464 kts 183°
2026-05-06 21:05 46.93723 1.05146 35972 ft 464 kts 183°
2026-05-06 21:06 46.87273 1.04843 35980 ft 464 kts 183°
2026-05-06 21:06 46.80986 1.04562 35974 ft 464 kts 183°
2026-05-06 21:07 46.74543 1.04284 35978 ft 463 kts 183°
2026-05-06 21:07 46.68094 1.04007 35977 ft 463 kts 183°
2026-05-06 21:08 46.61655 1.03731 35977 ft 463 kts 183°
2026-05-06 21:08 46.55210 1.03455 35969 ft 463 kts 183°
2026-05-06 21:09 46.48774 1.03216 35975 ft 463 kts 182°
2026-05-06 21:09 46.42334 1.03158 35975 ft 463 kts 182°
2026-05-06 21:10 46.35888 1.03129 35966 ft 463 kts 182°
2026-05-06 21:10 46.29447 1.03078 35971 ft 463 kts 182°
2026-05-06 21:11 46.23001 1.03014 35966 ft 463 kts 182°
2026-05-06 21:11 46.16571 1.02948 35963 ft 463 kts 182°
2026-05-06 21:12 46.10123 1.02883 35960 ft 463 kts 182°
2026-05-06 21:12 46.03676 1.02819 35950 ft 463 kts 182°
2026-05-06 21:13 45.97226 1.02755 35945 ft 464 kts 182°
2026-05-06 21:13 45.91005 1.02693 35942 ft 464 kts 182°
2026-05-06 21:14 45.84562 1.02431 35923 ft 462 kts 192°
2026-05-06 21:14 45.81487 1.01226 35954 ft 457 kts 205°
2026-05-06 21:14 45.78672 0.99163 35942 ft 453 kts 216°
2026-05-06 21:15 45.73826 0.93464 35968 ft 451 kts 223°
2026-05-06 21:15 45.69049 0.87629 35962 ft 452 kts 222°
2026-05-06 21:16 45.64277 0.81888 35965 ft 452 kts 222°
2026-05-06 21:16 45.59644 0.76367 35959 ft 452 kts 221°
2026-05-06 21:17 45.54810 0.70632 35960 ft 452 kts 222°
2026-05-06 21:17 45.49972 0.64904 35969 ft 452 kts 221°
2026-05-06 21:18 45.45135 0.59188 35971 ft 452 kts 221°
2026-05-06 21:18 45.40299 0.53484 35975 ft 451 kts 221°
2026-05-06 21:19 45.35473 0.47806 35966 ft 450 kts 221°
2026-05-06 21:19 45.30648 0.42142 35970 ft 449 kts 221°
2026-05-06 21:20 45.25836 0.36507 35981 ft 448 kts 221°
2026-05-06 21:20 45.21028 0.30888 35981 ft 448 kts 221°
2026-05-06 21:21 45.16224 0.25286 35977 ft 447 kts 221°
2026-05-06 21:21 45.11422 0.19699 35981 ft 446 kts 221°
2026-05-06 21:22 45.06627 0.14130 35988 ft 444 kts 221°
2026-05-06 21:22 45.04269 0.11401 35957 ft 430 kts 221°
2026-05-06 21:22 45.01991 0.08768 35976 ft 417 kts 221°
2026-05-06 21:22 44.99780 0.06217 36017 ft 404 kts 221°
2026-05-06 21:23 44.97642 0.03747 35990 ft 391 kts 220°
2026-05-06 21:23 44.94322 -0.00085 35997 ft 384 kts 220°
2026-05-06 21:24 44.90169 -0.04870 35920 ft 386 kts 220°
2026-05-06 21:24 44.88154 -0.07191 35812 ft 377 kts 220°
2026-05-06 21:24 44.86125 -0.09523 35659 ft 368 kts 220°
2026-05-06 21:24 44.84181 -0.11757 35482 ft 361 kts 220°
2026-05-06 21:25 44.82238 -0.13987 34965 ft 365 kts 220°
2026-05-06 21:25 44.80218 -0.16305 34288 ft 381 kts 219°
2026-05-06 21:25 44.78132 -0.18695 33559 ft 392 kts 219°
2026-05-06 21:25 44.76001 -0.21134 32792 ft 398 kts 219°
2026-05-06 21:26 44.73832 -0.23613 32032 ft 404 kts 219°
2026-05-06 21:26 44.71646 -0.26109 31266 ft 404 kts 219°
2026-05-06 21:26 44.69471 -0.28592 30540 ft 403 kts 219°
2026-05-06 21:26 44.67297 -0.31069 29777 ft 402 kts 218°
2026-05-06 21:27 44.65129 -0.33533 28917 ft 400 kts 218°
2026-05-06 21:27 44.62908 -0.35859 28082 ft 397 kts 215°
2026-05-06 21:27 44.60641 -0.38060 27276 ft 395 kts 214°
2026-05-06 21:27 44.58372 -0.40207 26499 ft 392 kts 213°
2026-05-06 21:28 44.56116 -0.42337 25725 ft 389 kts 213°
2026-05-06 21:28 44.53882 -0.44455 24978 ft 386 kts 214°
2026-05-06 21:28 44.51670 -0.46565 24256 ft 383 kts 214°
2026-05-06 21:28 44.49473 -0.48667 23535 ft 380 kts 214°
2026-05-06 21:29 44.47298 -0.50752 22695 ft 377 kts 214°
2026-05-06 21:29 44.45143 -0.52819 21883 ft 375 kts 214°
2026-05-06 21:29 44.43000 -0.54874 21093 ft 372 kts 214°
2026-05-06 21:29 44.40872 -0.56913 20316 ft 369 kts 214°
2026-05-06 21:30 44.38761 -0.58934 19548 ft 367 kts 214°
2026-05-06 21:30 44.36647 -0.60955 18501 ft 372 kts 215°
2026-05-06 21:30 44.34487 -0.63020 17186 ft 380 kts 215°
2026-05-06 21:30 44.32319 -0.65091 16598 ft 370 kts 215°
2026-05-06 21:31 44.30220 -0.67092 16048 ft 361 kts 215°
2026-05-06 21:31 44.28173 -0.69041 15570 ft 353 kts 215°
2026-05-06 21:31 44.26160 -0.70961 14969 ft 351 kts 215°
2026-05-06 21:31 44.24125 -0.72906 14487 ft 361 kts 215°
2026-05-06 21:32 44.22014 -0.74925 13957 ft 372 kts 215°
2026-05-06 21:32 44.17835 -0.78913 12866 ft 353 kts 216°
2026-05-06 21:32 44.15844 -0.80810 12389 ft 343 kts 216°
2026-05-06 21:33 44.13891 -0.82669 11924 ft 336 kts 216°
2026-05-06 21:33 44.11974 -0.84494 11470 ft 334 kts 216°
2026-05-06 21:33 44.10027 -0.86348 11129 ft 347 kts 216°
2026-05-06 21:33 44.08016 -0.88261 10991 ft 347 kts 216°
2026-05-06 21:34 44.06072 -0.90105 10817 ft 328 kts 216°
2026-05-06 21:34 44.04240 -0.91840 10669 ft 310 kts 216°
2026-05-06 21:34 44.03131 -0.92889 10568 ft 299 kts 216°
2026-05-06 21:38 44.03080 -0.92938 10311 ft 299 kts 216°
2026-05-06 21:38 44.01405 -0.94525 10530 ft 283 kts 216°
2026-05-06 21:38 43.99795 -0.96049 10379 ft 276 kts 216°
2026-05-06 21:39 43.98217 -0.97543 10267 ft 275 kts 216°
2026-05-06 21:39 43.96616 -0.99060 10149 ft 280 kts 216°
2026-05-06 21:39 43.95031 -1.00558 9999 ft 270 kts 216°
2026-05-06 21:39 43.93493 -1.02010 9698 ft 263 kts 216°
2026-05-06 21:40 43.92002 -1.03417 9425 ft 256 kts 216°
2026-05-06 21:41 43.86547 -1.08563 8510 ft 262 kts 216°
2026-05-06 21:41 43.85016 -1.10006 8239 ft 269 kts 216°
2026-05-06 21:41 43.83463 -1.11467 7947 ft 270 kts 216°
2026-05-06 21:41 43.81914 -1.12923 7659 ft 269 kts 216°
2026-05-06 21:42 43.80368 -1.14375 7383 ft 268 kts 216°
2026-05-06 21:42 43.78833 -1.15816 7103 ft 267 kts 216°
2026-05-06 21:42 43.77296 -1.17257 6829 ft 266 kts 216°
2026-05-06 21:42 43.75765 -1.18692 6557 ft 265 kts 216°
2026-05-06 21:43 43.74124 -1.19844 6244 ft 268 kts 196°
2026-05-06 21:43 43.72290 -1.20288 5993 ft 267 kts 191°
2026-05-06 21:43 43.70454 -1.20692 5708 ft 267 kts 191°
2026-05-06 21:43 43.68627 -1.21109 5425 ft 266 kts 192°
2026-05-06 21:44 43.66808 -1.21536 5142 ft 265 kts 192°
2026-05-06 21:44 43.64990 -1.21970 4872 ft 264 kts 192°
2026-05-06 21:44 43.63181 -1.22404 4600 ft 264 kts 192°
2026-05-06 21:44 43.61377 -1.22838 4323 ft 262 kts 192°
2026-05-06 21:45 43.59583 -1.23266 4057 ft 261 kts 192°
2026-05-06 21:45 43.57799 -1.23690 3832 ft 259 kts 193°
2026-05-06 21:45 43.56033 -1.24108 3571 ft 258 kts 193°
2026-05-06 21:45 43.54304 -1.24516 3467 ft 245 kts 193°
2026-05-06 21:46 43.52679 -1.24893 3393 ft 229 kts 193°
2026-05-06 21:46 43.51156 -1.25246 3333 ft 214 kts 193°
2026-05-06 21:46 43.49738 -1.25574 3304 ft 200 kts 194°
2026-05-06 21:46 43.48412 -1.25922 3252 ft 188 kts 204°
2026-05-06 21:47 43.47430 -1.26962 3230 ft 177 kts 244°
2026-05-06 21:47 43.47087 -1.28559 3239 ft 177 kts 268°
2026-05-06 21:47 43.47067 -1.29309 3236 ft 177 kts 270°
2026-05-06 21:47 43.47064 -1.29660 3232 ft 177 kts 271°
2026-05-06 21:48 43.47061 -1.31361 3194 ft 178 kts 271°
2026-05-06 21:48 43.47059 -1.33069 3176 ft 178 kts 270°
2026-05-06 21:48 43.47039 -1.34761 3130 ft 173 kts 270°
2026-05-06 21:48 43.47019 -1.36356 3063 ft 161 kts 270°
2026-05-06 21:49 43.46994 -1.37942 2791 ft 171 kts 269°
2026-05-06 21:49 43.46971 -1.39520 2553 ft 158 kts 269°
2026-05-06 21:49 43.46948 -1.40973 2314 ft 148 kts 269°
2026-05-06 21:49 43.46933 -1.42352 1920 ft 140 kts 270°
2026-05-06 21:50 43.46926 -1.43705 1511 ft 138 kts 270°
2026-05-06 21:50 43.46916 -1.45020 1246 ft 134 kts 269°
2026-05-06 21:50 43.46892 -1.46272 992 ft 130 kts 269°
2026-05-06 21:50 43.46894 -1.47533 851 ft 135 kts 269°
2026-05-06 21:51 43.46877 -1.48795 641 ft 131 kts 267°
2026-05-06 21:51 43.46865 -1.50091 422 ft 139 kts 268°
2026-05-06 21:51 43.46850 -1.51399 262 ft 130 kts 268°
2026-05-06 21:51 43.46836 -1.52488 251 ft 93 kts 268°
2026-05-06 21:52 43.46831 -1.53049 255 ft 27 kts 270°
2026-05-06 21:52 43.46850 -1.53127 255 ft 7 kts 321°
2026-05-06 21:52 43.46894 -1.53164 255 ft 7 kts 333°
2026-05-06 21:52 43.46939 -1.53192 256 ft 7 kts 335°
2026-05-06 21:53 43.46943 -1.53195 256 ft 0 kts 335°
2026-05-06 21:53 43.46944 -1.53195 256 ft 0 kts 335°
2026-05-06 21:53 43.46980 -1.53200 256 ft 9 kts
2026-05-06 21:54 43.47018 -1.53188 256 ft 2 kts 22°
2026-05-06 21:54 43.47059 -1.53144 256 ft 13 kts 28°
2026-05-06 21:54 43.47112 -1.53120 256 ft 0 kts 14°
2026-05-06 21:55 43.47114 -1.53119 256 ft 0 kts 14°
2026-05-06 21:55 43.47117 -1.53118 255 ft 0 kts 14°